Home   Weather   Tulsa   Past weeks
Flag for USA

Past Weather in Tulsa, Oklahoma, USA — Yesterday and Last 2 Weeks

Now
95 °F

Partly sunny.


Feels Like: 107 °F
Forecast: 96 / 79 °F
Wind: 3 mph from South

Location: Tulsa International Airport

Current Time: Jul 16, 2019 at 7:50:12 pm

Latest Report: Jul 16, 2019 at 6:53 pm


Visibility: 10 mi

Pressure: 29.83 "Hg

Humidity: 52%

Dew Point: 75 °F

Location of TulsaLocation

Past Weather in Tulsa — Graph

°F

Tulsa Temperature Yesterday

Maximum temperature yesterday: 84 °F (at 2:53 pm)
Minimum temperature yesterday: 69 °F (at 5:53 am)
Average temperature yesterday: 77 °F

High & Low Weather Summary for the Past Weeks

 TemperatureHumidityPressure
High96 °F (Jul 16, 5:53 pm)100% (Jul 5, 6:25 pm)30.07 "Hg (Jul 5, 6:25 pm)
Low66 °F (Jul 12, 4:53 am)45% (Jul 11, 4:53 pm)29.80 "Hg (Jul 3, 7:53 pm)
Average81 °F76%29.93 "Hg
* Reported Jul 1 5:53 pm — Jul 16 5:53 pm, Tulsa. Weather by CustomWeather, © 2019

Note: Actual official high and low records may vary slightly from our data, if they occured in-between our weather recording intervals... More about our weather records

Advertising

Tulsa Weather History for the Previous 24 Hours

Scroll right to see more
 ConditionsComfort  
Time TempWeatherWind HumidityBarometerVisibility
5:53 pm
Tue, Jul 16
96 °FScattered clouds.6 mph52%29.85 "Hg10 mi
4:53 pm95 °FBroken clouds.7 mph49%29.85 "Hg10 mi
3:53 pm94 °FScattered clouds.7 mph51%29.85 "Hg10 mi
2:53 pm92 °FPartly sunny.8 mph56%29.87 "Hg10 mi
1:53 pm90 °FPartly sunny.N/A59%29.89 "Hg10 mi
12:53 pm88 °FPartly sunny.7 mph63%29.91 "Hg10 mi
11:53 am88 °FHigh level clouds.3 mph59%29.91 "Hg10 mi
10:53 am86 °FPartly sunny.5 mph59%29.91 "Hg10 mi
9:53 am84 °FPartly sunny.No wind65%29.92 "Hg10 mi
8:53 am81 °FScattered clouds.3 mph74%29.91 "Hg10 mi
7:53 am75 °FPassing clouds.No wind88%29.89 "Hg10 mi
6:53 am71 °FPassing clouds.No wind93%29.88 "Hg10 mi
5:53 am70 °FClear.No wind97%29.86 "Hg10 mi
4:53 am72 °FClear.No wind93%29.85 "Hg10 mi
3:53 am74 °FClear.No wind88%29.85 "Hg10 mi
2:53 am73 °FClear.3 mph90%29.86 "Hg10 mi
1:53 am74 °FClear.No wind91%29.88 "Hg10 mi
12:53 am75 °FClear.No wind88%29.88 "Hg10 mi
11:53 pm
Mon, Jul 15
75 °FClear.No wind85%29.87 "Hg10 mi
10:53 pm76 °FClear.No wind82%29.86 "Hg10 mi
9:53 pm78 °FPassing clouds.No wind76%29.84 "Hg10 mi
8:53 pm80 °FPassing clouds.No wind69%29.83 "Hg10 mi
7:53 pm82 °FOvercast.7 mph67%29.83 "Hg10 mi
Weather by CustomWeather, © 2019

See weather overview

LIVE PARTIAL LUNAR ECLIPSE – Watch the eclipse as it happens